Time,TemperatureF,DewpointF,PressureIn,WindDirection,WindDirectionDegrees,WindSpeedMPH,WindSpeedGustMPH,Humidity,HourlyPrecipIn,Conditions,Clouds,dailyrainin,SoftwareType,DateUTC
2013-12-15 00:00:00,35.1,33.6,29.84,NW,321,1.0,4.0,94,0.00,RA,,0.00,WeatherDisplay:10.37,2013-12-15 05:00:00,
2013-12-15 00:14:00,35.1,33.5,29.83,WNW,300,0.0,4.0,94,0.00,OVC,,0.00,WeatherDisplay:10.37,2013-12-15 05:14:00,
2013-12-15 00:30:00,35.1,33.5,29.81,WNW,299,0.0,1.0,94,0.00,OVC,,0.00,WeatherDisplay:10.37,2013-12-15 05:30:00,
2013-12-15 00:44:00,35.0,33.4,29.80,WNW,299,0.0,1.0,94,0.00,OVC,,0.00,WeatherDisplay:10.37,2013-12-15 05:44:00,
2013-12-15 01:00:00,35.1,33.5,29.80,WNW,299,1.0,2.0,94,0.00,OVC,,0.00,WeatherDisplay:10.37,2013-12-15 06:00:00,
2013-12-15 01:14:00,35.2,33.6,29.76,WNW,300,0.0,3.0,94,0.00,OVC,,0.00,WeatherDisplay:10.37,2013-12-15 06:14:00,
2013-12-15 01:30:00,35.2,33.7,29.79,WNW,300,0.0,2.0,94,0.00,OVC,,0.00,WeatherDisplay:10.37,2013-12-15 06:30:00,
2013-12-15 01:44:00,35.3,33.7,29.81,WNW,300,1.0,3.0,94,0.00,OVC,,0.00,WeatherDisplay:10.37,2013-12-15 06:44:00,
2013-12-15 02:00:00,35.4,33.8,29.82,WNW,293,1.0,6.0,94,0.00,OVC,,0.00,WeatherDisplay:10.37,2013-12-15 07:00:00,
2013-12-15 02:14:00,35.3,33.7,29.79,WNW,291,0.0,3.0,94,0.01,OVC,,0.01,WeatherDisplay:10.37,2013-12-15 07:14:00,
2013-12-15 02:30:00,35.3,33.7,29.79,WNW,291,0.0,2.0,94,0.00,-RA,,0.01,WeatherDisplay:10.37,2013-12-15 07:30:00,
2013-12-15 02:44:00,35.4,33.8,29.77,WNW,291,1.0,3.0,94,0.00,-RA,,0.01,WeatherDisplay:10.37,2013-12-15 07:44:00,
2013-12-15 03:00:00,35.4,33.8,29.79,WNW,291,1.0,3.0,94,0.00,OVC,,0.01,WeatherDisplay:10.37,2013-12-15 08:00:00,
2013-12-15 03:14:00,35.5,33.9,29.80,WNW,291,2.0,5.0,94,0.00,OVC,,0.01,WeatherDisplay:10.37,2013-12-15 08:14:00,
2013-12-15 03:30:00,35.6,34.0,29.78,WNW,288,1.0,4.0,94,0.00,OVC,,0.01,WeatherDisplay:10.37,2013-12-15 08:30:00,
2013-12-15 03:44:00,35.6,34.1,29.81,WSW,244,0.0,7.0,94,0.00,OVC,,0.01,WeatherDisplay:10.37,2013-12-15 08:44:00,
2013-12-15 04:00:00,35.7,34.1,29.78,WSW,242,1.0,5.0,94,0.00,OVC,,0.01,WeatherDisplay:10.37,2013-12-15 09:00:00,
2013-12-15 04:14:00,35.7,34.1,29.76,WSW,240,1.0,3.0,94,0.00,OVC,,0.01,WeatherDisplay:10.37,2013-12-15 09:14:00,
2013-12-15 04:30:00,35.8,34.2,29.78,WSW,239,2.0,4.0,94,0.00,OVC,,0.01,WeatherDisplay:10.37,2013-12-15 09:30:00,
2013-12-15 04:44:00,35.9,34.4,29.77,WSW,239,1.0,4.0,94,0.00,OVC,,0.01,WeatherDisplay:10.37,2013-12-15 09:44:00,
2013-12-15 05:00:00,36.1,34.5,29.78,WSW,255,1.0,4.0,94,0.00,OVC,,0.01,WeatherDisplay:10.37,2013-12-15 10:00:00,
2013-12-15 05:14:00,36.2,34.6,29.78,WSW,255,1.0,4.0,94,0.00,OVC,,0.01,WeatherDisplay:10.37,2013-12-15 10:14:00,
2013-12-15 05:30:00,36.3,34.7,29.77,WSW,255,0.0,2.0,94,0.00,OVC,,0.01,WeatherDisplay:10.37,2013-12-15 10:30:00,
2013-12-15 05:44:00,36.4,35.1,29.78,WSW,255,0.0,3.0,95,0.00,OVC,,0.01,WeatherDisplay:10.37,2013-12-15 10:44:00,
2013-12-15 06:00:00,36.5,34.9,29.79,WSW,255,0.0,4.0,94,0.00,OVC,,0.01,WeatherDisplay:10.37,2013-12-15 11:00:00,
2013-12-15 06:14:00,36.7,35.1,29.81,WSW,255,0.0,3.0,94,0.00,OVC,,0.01,WeatherDisplay:10.37,2013-12-15 11:14:00,
2013-12-15 06:30:00,36.8,35.5,29.81,WSW,255,0.0,3.0,95,0.00,OVC,,0.01,WeatherDisplay:10.37,2013-12-15 11:30:00,
2013-12-15 06:44:00,36.9,35.3,29.82,WSW,255,0.0,5.0,94,0.00,OVC,,0.01,WeatherDisplay:10.37,2013-12-15 11:44:00,
2013-12-15 07:00:00,37.0,35.7,29.82,WSW,254,0.0,4.0,95,0.00,OVC,,0.01,WeatherDisplay:10.37,2013-12-15 12:00:00,
2013-12-15 07:14:00,37.1,35.8,29.83,WSW,254,0.0,3.0,95,0.00,OVC,,0.01,WeatherDisplay:10.37,2013-12-15 12:14:00,
2013-12-15 07:30:00,37.3,36.0,29.84,WSW,256,2.0,5.0,95,0.00,OVC,,0.01,WeatherDisplay:10.37,2013-12-15 12:30:00,
2013-12-15 07:44:00,37.5,36.2,29.85,WSW,258,0.0,3.0,95,0.00,OVC,,0.01,WeatherDisplay:10.37,2013-12-15 12:44:00,
2013-12-15 08:00:00,37.5,36.0,29.86,WSW,258,0.0,2.0,94,0.00,OVC,,0.01,WeatherDisplay:10.37,2013-12-15 13:00:00,
2013-12-15 08:14:00,37.6,36.3,29.86,West,266,1.0,4.0,95,0.00,OVC,,0.01,WeatherDisplay:10.37,2013-12-15 13:14:00,
2013-12-15 08:30:00,37.7,36.4,29.87,West,280,0.0,4.0,95,0.00,BKN,,0.01,WeatherDisplay:10.37,2013-12-15 13:30:00,
2013-12-15 08:44:00,37.9,36.6,29.87,WNW,296,1.0,5.0,95,0.01,RA,,0.02,WeatherDisplay:10.37,2013-12-15 13:44:00,
2013-12-15 09:00:00,38.2,36.9,29.88,NW,306,1.0,6.0,95,0.00,BKN,,0.02,WeatherDisplay:10.37,2013-12-15 14:00:00,
2013-12-15 09:14:00,38.5,37.2,29.89,WNW,298,0.0,6.0,95,0.00,BKN,,0.02,WeatherDisplay:10.37,2013-12-15 14:14:00,
2013-12-15 09:30:00,39.2,37.9,29.90,NW,320,2.0,7.0,95,0.00,BKN,,0.02,WeatherDisplay:10.37,2013-12-15 14:30:00,
2013-12-15 09:44:00,39.8,38.4,29.91,WNW,301,1.0,9.0,95,0.00,BKN,,0.02,WeatherDisplay:10.37,2013-12-15 14:44:00,
2013-12-15 10:00:00,40.6,39.3,29.91,WNW,300,3.0,12.0,95,0.00,FEW,,0.02,WeatherDisplay:10.37,2013-12-15 15:00:00,
2013-12-15 10:14:00,41.2,38.2,29.92,WNW,302,5.0,15.0,89,0.00,FEW,,0.02,WeatherDisplay:10.37,2013-12-15 15:14:00,
2013-12-15 10:30:00,42.7,37.9,29.92,NW,312,2.0,12.0,83,0.00,FEW,,0.02,WeatherDisplay:10.37,2013-12-15 15:30:00,
2013-12-15 10:44:00,44.4,35.9,29.93,WNW,286,6.0,16.0,72,0.00,FEW,,0.02,WeatherDisplay:10.37,2013-12-15 15:44:00,
2013-12-15 11:00:00,45.2,35.3,29.93,NW,307,6.0,16.0,68,0.00,FEW,,0.02,WeatherDisplay:10.37,2013-12-15 16:00:00,
2013-12-15 11:14:00,45.8,35.1,29.93,WNW,290,6.0,13.0,66,0.00,FEW,,0.02,WeatherDisplay:10.37,2013-12-15 16:14:00,
2013-12-15 11:30:00,46.5,34.2,29.93,NW,313,10.0,16.0,62,0.00,CLR,,0.02,WeatherDisplay:10.37,2013-12-15 16:30:00,
2013-12-15 11:44:00,46.6,34.3,29.93,WNW,295,6.0,14.0,62,0.00,CLR,,0.02,WeatherDisplay:10.37,2013-12-15 16:44:00,
2013-12-15 12:00:00,47.1,33.9,29.92,WNW,295,3.0,12.0,60,0.00,CLR,,0.02,WeatherDisplay:10.37,2013-12-15 17:00:00,
2013-12-15 12:14:00,47.5,33.9,29.92,NW,320,3.0,13.0,59,0.00,CLR,,0.02,WeatherDisplay:10.37,2013-12-15 17:14:00,
2013-12-15 12:30:00,47.1,32.2,29.93,NW,323,8.0,17.0,56,0.00,CLR,,0.02,WeatherDisplay:10.37,2013-12-15 17:30:00,
2013-12-15 12:44:00,47.0,32.5,29.93,NW,321,3.0,17.0,57,0.00,CLR,,0.02,WeatherDisplay:10.37,2013-12-15 17:44:00,
2013-12-15 13:00:00,47.0,33.0,29.93,NW,316,5.0,17.0,58,0.00,CLR,,0.02,WeatherDisplay:10.37,2013-12-15 18:00:00,
2013-12-15 13:14:00,47.6,33.1,29.92,NW,318,6.0,14.0,57,0.00,CLR,,0.02,WeatherDisplay:10.37,2013-12-15 18:14:00,
2013-12-15 13:30:00,47.8,32.8,29.92,NW,310,8.0,16.0,56,0.00,CLR,,0.02,WeatherDisplay:10.37,2013-12-15 18:30:00,
2013-12-15 13:44:00,47.8,32.4,29.92,WNW,284,5.0,13.0,55,0.00,CLR,,0.02,WeatherDisplay:10.37,2013-12-15 18:44:00,
2013-12-15 14:00:00,47.3,31.9,29.92,WNW,302,3.0,12.0,55,0.00,CLR,,0.02,WeatherDisplay:10.37,2013-12-15 19:00:00,
2013-12-15 14:14:00,47.0,31.7,29.93,WNW,300,6.0,14.0,55,0.00,CLR,,0.02,WeatherDisplay:10.37,2013-12-15 19:14:00,
2013-12-15 14:30:00,47.3,31.9,29.93,NW,305,5.0,12.0,55,0.00,CLR,,0.02,WeatherDisplay:10.37,2013-12-15 19:30:00,
2013-12-15 14:44:00,47.7,30.9,29.94,West,271,5.0,12.0,52,0.00,CLR,,0.02,WeatherDisplay:10.37,2013-12-15 19:44:00,
2013-12-15 15:00:00,47.6,31.3,29.94,West,279,2.0,14.0,53,0.00,CLR,,0.02,WeatherDisplay:10.37,2013-12-15 20:00:00,
2013-12-15 15:14:00,47.6,30.8,29.95,NW,307,2.0,12.0,52,0.00,CLR,,0.02,WeatherDisplay:10.37,2013-12-15 20:14:00,
2013-12-15 15:30:00,46.9,29.2,29.96,NW,315,2.0,17.0,50,0.00,CLR,,0.02,WeatherDisplay:10.37,2013-12-15 20:30:00,
2013-12-15 15:44:00,46.3,29.6,29.97,NW,325,8.0,12.0,52,0.00,CLR,,0.02,WeatherDisplay:10.37,2013-12-15 20:44:00,
2013-12-15 16:00:00,45.5,28.9,29.98,NNW,330,7.0,13.0,52,0.00,CLR,,0.02,WeatherDisplay:10.37,2013-12-15 21:00:00,
2013-12-15 16:14:00,45.0,28.9,29.99,NW,326,2.0,12.0,53,0.00,CLR,,0.02,WeatherDisplay:10.37,2013-12-15 21:14:00,
2013-12-15 16:30:00,44.7,29.1,30.00,NW,317,3.0,12.0,54,0.00,CLR,,0.02,WeatherDisplay:10.37,2013-12-15 21:30:00,
2013-12-15 16:44:00,44.0,28.4,30.00,NW,304,3.0,14.0,54,0.00,CLR,,0.02,WeatherDisplay:10.37,2013-12-15 21:44:00,
2013-12-15 17:00:00,43.1,28.0,30.01,NW,324,0.0,10.0,55,0.00,CLR,,0.02,WeatherDisplay:10.37,2013-12-15 22:00:00,
2013-12-15 17:14:00,41.7,27.1,30.01,NW,326,2.0,9.0,56,0.00,CLR,,0.02,WeatherDisplay:10.37,2013-12-15 22:14:00,
2013-12-15 17:30:00,40.7,26.7,30.02,NW,314,3.0,7.0,57,0.00,CLR,,0.02,WeatherDisplay:10.37,2013-12-15 22:30:00,
2013-12-15 17:44:00,40.2,26.6,30.02,NW,317,2.0,8.0,58,0.00,CLR,,0.02,WeatherDisplay:10.37,2013-12-15 22:44:00,
2013-12-15 18:00:00,39.5,26.3,30.03,WNW,301,0.0,6.0,59,0.00,CLR,,0.02,WeatherDisplay:10.37,2013-12-15 23:00:00,
2013-12-15 18:14:00,38.6,25.9,30.03,WNW,301,1.0,3.0,60,0.00,CLR,,0.02,WeatherDisplay:10.37,2013-12-15 23:14:00,
2013-12-15 18:30:00,37.9,25.6,30.04,WNW,301,0.0,5.0,61,0.00,CLR,,0.02,WeatherDisplay:10.37,2013-12-15 23:30:00,
2013-12-15 18:44:00,37.3,25.5,30.04,WNW,301,0.0,1.0,62,0.00,CLR,,0.02,WeatherDisplay:10.37,2013-12-15 23:44:00,
2013-12-15 19:00:00,36.4,25.4,30.05,WNW,301,0.0,0.0,64,0.00,CLR,,0.02,WeatherDisplay:10.37,2013-12-16 00:00:00,
2013-12-15 19:14:00,35.5,25.2,30.06,WNW,301,1.0,3.0,66,0.00,CLR,,0.02,WeatherDisplay:10.37,2013-12-16 00:14:00,
2013-12-15 19:30:00,35.1,25.2,30.07,WNW,301,0.0,3.0,67,0.00,CLR,,0.02,WeatherDisplay:10.37,2013-12-16 00:30:00,
2013-12-15 19:44:00,34.9,25.4,30.07,WNW,301,0.0,1.0,68,0.00,CLR,,0.02,WeatherDisplay:10.37,2013-12-16 00:44:00,
2013-12-15 20:00:00,34.6,25.1,30.08,WNW,301,0.0,2.0,68,0.00,CLR,,0.02,WeatherDisplay:10.37,2013-12-16 01:00:00,
2013-12-15 20:14:00,34.4,24.9,30.08,WNW,293,0.0,4.0,68,0.00,CLR,,0.02,WeatherDisplay:10.37,2013-12-16 01:14:00,
2013-12-15 20:30:00,34.3,24.8,30.08,WNW,288,0.0,4.0,68,0.00,CLR,,0.02,WeatherDisplay:10.37,2013-12-16 01:30:00,
2013-12-15 20:44:00,33.6,24.2,30.08,WNW,286,0.0,1.0,68,0.00,CLR,,0.02,WeatherDisplay:10.37,2013-12-16 01:44:00,
2013-12-15 21:00:00,33.2,24.4,30.09,WNW,286,0.0,0.0,70,0.00,CLR,,0.02,WeatherDisplay:10.37,2013-12-16 02:00:00,
2013-12-15 21:14:00,32.3,24.3,30.09,WNW,286,0.0,3.0,72,0.00,CLR,,0.02,WeatherDisplay:10.37,2013-12-16 02:14:00,
2013-12-15 21:30:00,31.5,23.9,30.09,WNW,286,0.0,0.0,73,0.00,CLR,,0.02,WeatherDisplay:10.37,2013-12-16 02:30:00,
2013-12-15 21:44:00,30.7,23.4,30.09,WNW,286,0.0,0.0,74,0.00,CLR,,0.02,WeatherDisplay:10.37,2013-12-16 02:44:00,
2013-12-15 22:00:00,30.2,23.2,30.10,WNW,286,0.0,0.0,75,0.00,CLR,,0.02,WeatherDisplay:10.37,2013-12-16 03:00:00,
2013-12-15 22:14:00,29.6,23.3,30.10,WNW,286,0.0,0.0,77,0.00,CLR,,0.02,WeatherDisplay:10.37,2013-12-16 03:14:00,
2013-12-15 22:30:00,29.1,22.8,30.10,WNW,286,0.0,1.0,77,0.00,CLR,,0.02,WeatherDisplay:10.37,2013-12-16 03:30:00,
2013-12-15 22:44:00,28.7,22.7,30.09,WNW,286,0.0,0.0,78,0.00,CLR,,0.02,WeatherDisplay:10.37,2013-12-16 03:44:00,
2013-12-15 23:00:00,28.3,22.6,30.09,WNW,286,0.0,2.0,79,0.00,CLR,,0.02,WeatherDisplay:10.37,2013-12-16 04:00:00,
2013-12-15 23:14:00,28.2,23.1,30.10,WNW,286,0.0,2.0,81,0.00,CLR,,0.02,WeatherDisplay:10.37,2013-12-16 04:14:00,
2013-12-15 23:30:00,28.1,23.0,30.10,WNW,286,0.0,1.0,81,0.00,CLR,,0.02,WeatherDisplay:10.37,2013-12-16 04:30:00,
2013-12-15 23:44:00,27.9,23.1,30.11,WNW,286,0.0,0.0,82,0.00,CLR,,0.02,WeatherDisplay:10.37,2013-12-16 04:44:00,